Regional Weather Roundup
Issued by NWS

Home | Current Version | Previous Version | Graphics & Text | Print | Product List | Glossary On
Versions: 1 2 3 4 5 6 7 8 9 10 11 12 13 14 15 16 17 18 19 20 21 22 23 24 25 26 27 28 29 30 31 32 33 34 35 36 37 38 39 40 41 42 43 44 45 46 47 48 49 50
968
ASUS43 KMPX 250910
RWRMN
WEATHER ROUNDUP FOR MINNESOTA
NATIONAL WEATHER SERVICE TWIN CITIES/CHANHASSEN MN
400 AM CDT MON JUL 25 2016


NOTE: "FAIR" INDICATES FEW OR NO CLOUDS BELOW 12,000 FEET WITH NO
SIGNIFICANT WEATHER AND/OR OBSTRUCTIONS TO VISIBILITY. N/A MEANS
CURRENT SKY AND/OR WEATHER CONDITIONS ARE NOT AVAILABLE.

MNZ060>063-068>070-251000-
   Twin Cities Metro

CITY           SKY/WX    TMP DP  RH WIND       PRES   REMARKS
TWIN CITIES    CLEAR     69  60  73 W3        30.01S
ST PAUL        CLEAR     68  59  73 NW5       30.01R
CRYSTAL        CLEAR     66  58  75 W6        30.00R
BLAINE         CLEAR     68  61  77 SW3       30.01R
LAKEVILLE      CLEAR     63  63 100 CALM      30.02S
EDEN PRAIRIE   CLEAR     65  62  90 SW5       30.01S
LAKEVILLE      CLEAR     63  63 100 CALM      30.02S
SOUTH ST PAUL  CLEAR     68  60  75 CALM      30.01R
LAKE ELMO      FAIR      64  61  88 CALM      30.02R
$$
MNZ001>005-007-008-013>017-022>024-027-028-251000-
   Northwest Minnesota

CITY           SKY/WX    TMP DP  RH WIND       PRES   REMARKS
BEMIDJI        CLEAR     61  59  94 W5        29.99R
HALLOCK        CLEAR     59  57  94 SW3       29.96R
ROSEAU         CLEAR     61  55  82 W3        29.96R
WARROAD        CLEAR     61  57  88 W5        29.96R
THIEF RVR FALL CLEAR     61  59  93 CALM      29.99S
CROOKSTON      CLEAR     61  57  88 CALM      30.00R
FOSSTON        CLEAR     55  54  94 S3        30.00S
DETROIT LAKES  CLEAR     64  59  82 W6        30.03R
MOORHEAD       CLEAR     61  57  88 SW3       30.02R
PARK RAPIDS    CLEAR     60  56  86 W6        30.01R
MAHNOMEN       FAIR      58  56  92 SW3       30.01R
$$
MNZ006-009>011-018-025>026-251000-
   North Central Minnesota

CITY           SKY/WX    TMP DP  RH WIND       PRES   REMARKS
BAUDETTE       CLEAR     60  58  92 W6        29.95R
FLAG ISLAND    CLEAR     63  59  88 W7        29.93R
INTL FALLS     CLEAR     59  58  96 W5        29.94R
WASKISH        CLEAR     66  63  88 NW7       29.96S
BIG FORK       FOG       57  55  94 CALM      29.98R VSB 1/2
LONGVILLE      CLEAR     59  57  94 SW3       29.99R
GRAND RAPIDS   CLEAR     63  61  93 NW3       29.99R
CRANE LAKE     CLEAR     59  57  94 SW1       29.94S
ORR            CLEAR     57  55  94 CALM      29.93R
COOK           CLEAR     57  57 100 CALM      29.96R
WALKER         FAIR      59  57  92 W3        30.00R
$$
MNZ012-019>021-037-251000-
   Northeast Minnesota

CITY           SKY/WX    TMP DP  RH WIND       PRES   REMARKS
DULUTH         CLEAR     63  60  90 W9        29.96R
ELY            CLEAR     61  57  88 NW5       29.94R
HIBBING        CLEAR     60  58  92 W5        29.96R
EVELETH        CLEAR     63  60  89 W5        29.97R
DULUTH HARBOR  CLEAR     66  63  88 SW7       29.95R
TWO HARBORS    CLEAR     64  61  88 CALM      29.91S
SILVER BAY     CLEAR     63  59  88 CALM      29.90R
GRAND MARAIS     N/A     67  57  70 VRB5      29.83R
G MARAIS ARPRT MOCLDY    61  54  77 NW9G18    29.88S
$$
MNZ029>031-032-039>041-046>048-054>057-064-251000-
   West Central Minnesota

CITY           SKY/WX    TMP DP  RH WIND       PRES   REMARKS
FERGUS FALLS   CLEAR     61  61 100 CALM      30.04S
WHEATON        CLEAR     64  61  88 SW5       30.05R
MORRIS         CLEAR     61  61 100 CALM      30.03R
ALEXANDRIA     CLEAR     62  58  86 W3        30.05R
ELBOW LAKE     FAIR      60  58  94 W3        30.04R
WADENA         CLEAR     61  59  94 W5        30.01S
GLENWOOD       CLEAR     61  59  94 W3        30.04S
APPLETON       CLEAR     63  57  82 SW6       30.03S
BENSON         CLEAR     59  55  88 CALM      30.04R
ORTONVILLE     CLEAR     66  57  72 CALM      30.04S
MADISON        CLEAR     61  57  88 W5        30.04F
WILLMAR        FAIR      63  61  94 CALM      30.05S
$$
MNZ033>034-036-042>043-049>051-058-059-251000-
   Central Minnesota

CITY           SKY/WX    TMP DP  RH WIND       PRES   REMARKS
ST CLOUD       PTCLDY    62  60  93 CALM      30.00S
SAUK CENTRE    FAIR      59  57  92 CALM      30.04S
PAYNESVILLE    CLEAR     58  58 100 CALM      30.04R
AITKIN         CLEAR     64  57  77 W3        29.98R
PINE RIVER     CLEAR     61  57  88 CALM      30.03S
BRAINERD       CLEAR     65  59  81 W7        30.00R
STAPLES        CLEAR     61  57  88 W5        30.01S
LONG PRAIRIE   FAIR      63  59  88 SW3       30.03S
LITTLE FALLS   PTCLDY    59  55  88 CALM      30.02R
LITCHFIELD     CLEAR     64  63  94 SW5       30.03S
BUFFALO        CLEAR     65  60  83 CALM      30.02S
MAPLE LAKE     CLEAR     65  62  89 W3        30.02F
HUTCHINSON     CLEAR     62  61  94 W5        30.04S
$$
MNZ037-044-045-052-053-251000-
   East Central Minnesota

CITY           SKY/WX    TMP DP  RH WIND       PRES   REMARKS
PRINCETON      CLEAR     63  59  88 CALM      30.01R
MORA           CLEAR     61  55  82 NW3       30.01R
CAMBRIDGE      CLEAR     66  55  68 CALM      29.99R
RUSH CITY      PTCLDY    64  59  86 W3        30.00R
MOOSE LAKE     CLEAR     61  59  94 NW5       29.96S
HINCKLEY       FAIR      61  61 100 CALM      29.98R
CLOQUET        CLEAR     63  57  82 W6        29.97R
MCGREGOR       CLEAR     64  61  88 W3        29.99R
$$
MNZ071>073-080-081-089-090-097-098-251000-
   Southwest Minnesota

CITY           SKY/WX    TMP DP  RH WIND       PRES   REMARKS
MONTEVIDEO     CLEAR     63  59  88 NW5       30.06S
GRANITE FALLS  CLEAR     62  60  95 SW3       30.06S
CANBY          CLEAR     64  59  86 NW6       30.06F
MARSHALL       CLEAR     63  59  87 W7        30.05F
REDWOOD FALLS  PTCLDY    65  60  84 W9        30.03F
OLIVIA         CLEAR     61  59  94 W5        30.03S
PIPESTONE      CLEAR     66  61  82 NW8       30.09S
WINDOM         CLEAR     61  59  94 CALM      30.06F
WORTHINGTON    CLEAR     62  59  90 W6        30.08S
JACKSON        CLEAR     63  59  88 CALM      30.07F
TRACY          CLEAR     66  61  84 W5        30.06F
SLAYTON        CLEAR     61  59  92 W6        30.08F
$$
MNZ065>067-074>077-082>085-091>093-251000-
   South Central Minnesota

CITY           SKY/WX    TMP DP  RH WIND       PRES   REMARKS
MANKATO        CLEAR     64  61  88 W5        30.04S
NEW ULM        CLEAR     61  61 100 SW3       30.03F
ST JAMES       CLEAR     61  57  88 CALM      30.06S
FAIRMONT       CLEAR     63  55  77 W5        30.04S
GLENCOE        PTCLDY    65  63  93 SW3       30.03R
FARIBAULT      CLEAR     63  61  94 CALM      30.04S
OWATONNA       CLEAR     61  57  88 CALM      30.04S FOG
WASECA         CLEAR     63  61  94 CALM      30.05F FOG
ALBERT LEA     CLEAR     64  63  94 CALM      30.05S
$$
MNZ078>079-086>088-094>096-251000-
   Southeast Minnesota

CITY           SKY/WX    TMP DP  RH WIND       PRES   REMARKS
ROCHESTER      CLEAR     63  62  97 W7        30.04F
RED WING       CLEAR     63  63 100 CALM      30.00S
STANTON        CLEAR     63  61  94 CALM      30.01S
DODGE CENTER   PTCLDY    61  61 100 W6        30.04S
WINONA         CLEAR     66  63  88 NW5       30.00F
AUSTIN         CLEAR     63  61  94 CALM      30.04F
PRESTON        CLEAR     63  60  91 W8        30.04F
$$
ABBREVIATIONS USED IN REMARKS
   TC - TEMPERATURES IN CELSIUS
  WCI - WIND CHILL INDEX
   HX - HEAT INDEX
  VSB - VISIBILITY
$$




USA.gov is the U.S. government's official web portal to all federal, state and local government web resources and services.